Time,TemperatureF,DewpointF,PressureIn,WindDirection,WindDirectionDegrees,WindSpeedMPH,WindSpeedGustMPH,Humidity,HourlyPrecipIn,Conditions,Clouds,dailyrainin,SolarRadiationWatts/m^2,SoftwareType,DateUTC
2013-07-28 00:00:00,54.0,53.0,-100.00,NW,315,4.0,-999.0,95,0.06,,,-99.99,0.000000,,2013-07-28 05:00:00,
2013-07-28 00:32:00,54.0,53.0,-100.00,NW,315,4.0,-999.0,95,0.06,,,-99.99,0.000000,,2013-07-28 05:32:00,
2013-07-28 00:43:00,54.0,53.0,-100.00,NW,315,4.0,-999.0,95,0.06,,,-99.99,0.000000,,2013-07-28 05:43:00,
2013-07-28 00:53:00,54.0,53.0,-100.00,NW,315,4.0,-999.0,95,0.06,,,-99.99,0.000000,,2013-07-28 05:53:00,
2013-07-28 01:00:00,54.0,54.0,-100.00,NNW,337,2.0,-999.0,97,0.12,,,-99.99,0.000000,,2013-07-28 06:00:00,
2013-07-28 01:43:00,54.0,54.0,-100.00,NNW,337,2.0,-999.0,97,0.12,,,-99.99,0.000000,,2013-07-28 06:43:00,
2013-07-28 01:53:00,54.0,54.0,-100.00,NNW,337,2.0,-999.0,97,0.12,,,-99.99,0.000000,,2013-07-28 06:53:00,
2013-07-28 02:00:00,53.0,52.0,-100.00,North,0,3.0,-999.0,98,0.04,,,-99.99,0.000000,,2013-07-28 07:00:00,
2013-07-28 02:43:00,53.0,52.0,-100.00,North,0,3.0,-999.0,98,0.04,,,-99.99,0.000000,,2013-07-28 07:43:00,
2013-07-28 02:53:00,53.0,52.0,-100.00,North,0,3.0,-999.0,98,0.04,,,-99.99,0.000000,,2013-07-28 07:53:00,
2013-07-28 03:00:00,52.0,51.0,-100.00,North,0,4.0,-999.0,96,-99.99,,,-99.99,0.000000,,2013-07-28 08:00:00,
2013-07-28 03:43:00,52.0,51.0,-100.00,North,0,4.0,-999.0,96,-99.99,,,-99.99,0.000000,,2013-07-28 08:43:00,
2013-07-28 03:53:00,52.0,51.0,-100.00,North,0,4.0,-999.0,96,-99.99,,,-99.99,0.000000,,2013-07-28 08:53:00,
2013-07-28 04:00:00,52.0,51.0,-100.00,North,0,4.0,-999.0,95,-99.99,,,-99.99,0.000000,,2013-07-28 09:00:00,
2013-07-28 04:43:00,52.0,51.0,-100.00,North,0,4.0,-999.0,95,-99.99,,,-99.99,0.000000,,2013-07-28 09:43:00,
2013-07-28 04:53:00,52.0,51.0,-100.00,North,0,4.0,-999.0,95,-99.99,,,-99.99,0.000000,,2013-07-28 09:53:00,
2013-07-28 05:00:00,52.0,49.0,-100.00,NW,315,6.0,-999.0,92,-99.99,,,-99.99,0.000000,,2013-07-28 10:00:00,
2013-07-28 05:33:00,52.0,49.0,-100.00,NW,315,6.0,-999.0,92,-99.99,,,-99.99,0.000000,,2013-07-28 10:33:00,
2013-07-28 05:42:00,52.0,49.0,-100.00,NW,315,6.0,-999.0,92,-99.99,,,-99.99,0.000000,,2013-07-28 10:42:00,
2013-07-28 05:53:00,52.0,49.0,-100.00,NW,315,6.0,-999.0,92,-99.99,,,-99.99,0.000000,,2013-07-28 10:53:00,
2013-07-28 07:00:00,52.0,50.0,-100.00,NW,315,7.0,-999.0,91,-99.99,,,-99.99,89.320000,,2013-07-28 12:00:00,
2013-07-28 07:43:00,52.0,50.0,-100.00,NW,315,7.0,-999.0,91,-99.99,,,-99.99,89.320000,,2013-07-28 12:43:00,
2013-07-28 07:53:00,52.0,50.0,-100.00,NW,315,7.0,-999.0,91,-99.99,,,-99.99,89.320000,,2013-07-28 12:53:00,
2013-07-28 08:00:00,54.0,50.0,-100.00,WNW,292,9.0,-999.0,86,-99.99,,,-99.99,278.399994,,2013-07-28 13:00:00,
2013-07-28 08:43:00,54.0,50.0,-100.00,WNW,292,9.0,-999.0,86,-99.99,,,-99.99,278.399994,,2013-07-28 13:43:00,
2013-07-28 08:53:00,54.0,50.0,-100.00,WNW,292,9.0,-999.0,86,-99.99,,,-99.99,278.399994,,2013-07-28 13:53:00,
2013-07-28 09:00:00,55.0,50.0,-100.00,WNW,292,10.0,-999.0,82,-99.99,,,-99.99,441.959991,,2013-07-28 14:00:00,
2013-07-28 09:43:00,55.0,50.0,-100.00,WNW,292,10.0,-999.0,82,-99.99,,,-99.99,441.959991,,2013-07-28 14:43:00,
2013-07-28 09:53:00,55.0,50.0,-100.00,WNW,292,10.0,-999.0,82,-99.99,,,-99.99,441.959991,,2013-07-28 14:53:00,
2013-07-28 10:00:00,55.0,50.0,-100.00,WNW,292,9.0,-999.0,84,-99.99,,,-99.99,247.080002,,2013-07-28 15:00:00,
2013-07-28 10:43:00,55.0,50.0,-100.00,WNW,292,9.0,-999.0,84,-99.99,,,-99.99,247.080002,,2013-07-28 15:43:00,
2013-07-28 10:53:00,55.0,50.0,-100.00,WNW,292,9.0,-999.0,84,-99.99,,,-99.99,247.080002,,2013-07-28 15:53:00,
2013-07-28 11:00:00,53.0,52.0,-100.00,WNW,292,8.0,-999.0,93,0.03,,,-99.99,164.720001,,2013-07-28 16:00:00,
2013-07-28 11:33:00,53.0,52.0,-100.00,WNW,292,8.0,-999.0,93,0.03,,,-99.99,164.720001,,2013-07-28 16:33:00,
2013-07-28 11:43:00,53.0,52.0,-100.00,WNW,292,8.0,-999.0,93,0.03,,,-99.99,164.720001,,2013-07-28 16:43:00,
2013-07-28 11:52:00,53.0,52.0,-100.00,WNW,292,8.0,-999.0,93,0.03,,,-99.99,164.720001,,2013-07-28 16:52:00,
2013-07-28 12:00:00,55.0,53.0,-100.00,West,270,8.0,-999.0,94,-99.99,,,-99.99,309.720001,,2013-07-28 17:00:00,
2013-07-28 12:33:00,55.0,53.0,-100.00,West,270,8.0,-999.0,94,-99.99,,,-99.99,309.720001,,2013-07-28 17:33:00,
2013-07-28 12:43:00,55.0,53.0,-100.00,West,270,8.0,-999.0,94,-99.99,,,-99.99,309.720001,,2013-07-28 17:43:00,
2013-07-28 12:53:00,55.0,53.0,-100.00,West,270,8.0,-999.0,94,-99.99,,,-99.99,309.720001,,2013-07-28 17:53:00,
2013-07-28 14:00:00,55.0,54.0,-100.00,West,270,8.0,-999.0,96,0.07,,,-99.99,146.160004,,2013-07-28 19:00:00,
2013-07-28 14:43:00,55.0,54.0,-100.00,West,270,8.0,-999.0,96,0.07,,,-99.99,146.160004,,2013-07-28 19:43:00,
2013-07-28 14:52:00,55.0,54.0,-100.00,West,270,8.0,-999.0,96,0.07,,,-99.99,146.160004,,2013-07-28 19:52:00,
2013-07-28 16:00:00,56.0,54.0,-100.00,WNW,292,10.0,-999.0,93,0.01,,,-99.99,229.679993,,2013-07-28 21:00:00,
2013-07-28 16:44:00,56.0,54.0,-100.00,WNW,292,10.0,-999.0,93,0.01,,,-99.99,229.679993,,2013-07-28 21:44:00,
2013-07-28 16:52:00,56.0,54.0,-100.00,WNW,292,10.0,-999.0,93,0.01,,,-99.99,229.679993,,2013-07-28 21:52:00,
2013-07-28 17:00:00,56.0,54.0,-100.00,WNW,292,11.0,-999.0,91,-99.99,,,-99.99,176.320007,,2013-07-28 22:00:00,
2013-07-28 17:32:00,56.0,54.0,-100.00,WNW,292,11.0,-999.0,91,-99.99,,,-99.99,176.320007,,2013-07-28 22:32:00,
2013-07-28 17:43:00,56.0,54.0,-100.00,WNW,292,11.0,-999.0,91,-99.99,,,-99.99,176.320007,,2013-07-28 22:43:00,
2013-07-28 17:52:00,56.0,54.0,-100.00,WNW,292,11.0,-999.0,91,-99.99,,,-99.99,176.320007,,2013-07-28 22:52:00,
2013-07-28 18:00:00,56.0,53.0,-100.00,WNW,292,10.0,-999.0,89,-99.99,,,-99.99,167.039993,,2013-07-28 23:00:00,
2013-07-28 18:33:00,56.0,53.0,-100.00,WNW,292,10.0,-999.0,89,-99.99,,,-99.99,167.039993,,2013-07-28 23:33:00,
2013-07-28 18:43:00,56.0,53.0,-100.00,WNW,292,10.0,-999.0,89,-99.99,,,-99.99,167.039993,,2013-07-28 23:43:00,
2013-07-28 18:53:00,56.0,53.0,-100.00,WNW,292,10.0,-999.0,89,-99.99,,,-99.99,167.039993,,2013-07-28 23:53:00,
2013-07-28 19:00:00,56.0,53.0,-100.00,WNW,292,9.0,-999.0,89,-99.99,,,-99.99,70.760002,,2013-07-29 00:00:00,
2013-07-28 19:43:00,56.0,53.0,-100.00,WNW,292,9.0,-999.0,89,-99.99,,,-99.99,70.760002,,2013-07-29 00:43:00,
2013-07-28 19:52:00,56.0,53.0,-100.00,WNW,292,9.0,-999.0,89,-99.99,,,-99.99,70.760002,,2013-07-29 00:52:00,
2013-07-28 20:00:00,55.0,51.0,-100.00,NW,315,10.0,-999.0,86,-99.99,,,-99.99,18.559999,,2013-07-29 01:00:00,
2013-07-28 20:39:00,55.0,51.0,-100.00,NW,315,10.0,-999.0,86,-99.99,,,-99.99,18.559999,,2013-07-29 01:39:00,
2013-07-28 20:47:00,55.0,51.0,-100.00,NW,315,10.0,-999.0,86,-99.99,,,-99.99,18.559999,,2013-07-29 01:47:00,
2013-07-28 21:00:00,55.0,51.0,-100.00,NW,315,9.0,-999.0,84,-99.99,,,-99.99,2.320000,,2013-07-29 02:00:00,
2013-07-28 21:39:00,55.0,51.0,-100.00,NW,315,9.0,-999.0,84,-99.99,,,-99.99,2.320000,,2013-07-29 02:39:00,
2013-07-28 21:49:00,55.0,51.0,-100.00,NW,315,9.0,-999.0,84,-99.99,,,-99.99,2.320000,,2013-07-29 02:49:00,
2013-07-28 21:58:00,55.0,51.0,-100.00,NW,315,9.0,-999.0,84,-99.99,,,-99.99,2.320000,,2013-07-29 02:58:00,
2013-07-28 22:00:00,55.0,51.0,-100.00,NW,315,9.0,-999.0,86,-99.99,,,-99.99,0.000000,,2013-07-29 03:00:00,
2013-07-28 22:50:00,55.0,51.0,-100.00,NW,315,9.0,-999.0,86,-99.99,,,-99.99,0.000000,,2013-07-29 03:50:00,
2013-07-28 22:58:00,55.0,51.0,-100.00,NW,315,9.0,-999.0,86,-99.99,,,-99.99,0.000000,,2013-07-29 03:58:00,
2013-07-28 23:00:00,54.0,52.0,-100.00,NNW,337,9.0,-999.0,95,0.01,,,-99.99,0.000000,,2013-07-29 04:00:00,
2013-07-28 23:43:00,54.0,52.0,-100.00,NNW,337,9.0,-999.0,95,0.01,,,-99.99,0.000000,,2013-07-29 04:43:00,
2013-07-28 23:53:00,54.0,52.0,-100.00,NNW,337,9.0,-999.0,95,0.01,,,-99.99,0.000000,,2013-07-29 04:53:00,